Location: Mentone
(34.5413°N, 85.5351°W)
Time: 06:08:55
(UTC-05:00)

Tiros 1 despin weight - All Passes

Search period start: 18 October 2017 00:00
Search period end: 28 October 2017 00:00
Orbit: 594 x 644 km, 48.2° (Epoch: 17 October)

Date Brightness Start Highest point End Pass type
(mag) Time Alt. Az. Time Alt. Az. Time Alt. Az.
18 Oct - 00:28:55 10° NNW 00:32:29 21° NNE 00:36:02 10° ENE night (unlit)
18 Oct - 02:10:03 10° NW 02:14:44 68° NE 02:19:23 10° ESE night (unlit)
18 Oct - 03:52:39 10° W 03:55:57 19° SW 03:59:14 10° S night (unlit)
18 Oct - 17:56:57 10° S 18:00:23 21° SE 18:03:53 10° E daylight
18 Oct - 19:37:05 10° WSW 19:41:39 62° NW 19:46:18 10° NE visible
18 Oct - 21:20:33 10° WNW 21:23:58 20° NNW 21:27:25 10° NNE visible
18 Oct - 23:04:12 10° NNW 23:07:00 15° N 23:09:48 10° NE night (unlit)
19 Oct - 00:45:39 10° NW 00:49:47 29° NNE 00:53:54 10° E night (unlit)
19 Oct - 02:26:59 10° WNW 02:31:38 61° SW 02:36:14 10° SE night (unlit)
19 Oct - 18:12:43 10° SSW 18:17:04 44° SE 18:21:30 10° ENE daylight
19 Oct - 19:54:29 10° W 19:58:44 35° NNW 20:03:02 10° NE visible
19 Oct - 21:38:31 10° NW 21:41:25 16° N 21:44:20 10° NNE visible
19 Oct - 23:21:14 10° NNW 23:24:28 18° NNE 23:27:41 10° ENE night (unlit)
20 Oct - 01:02:22 10° NW 01:06:56 48° NNE 01:11:28 10° ESE night (unlit)
20 Oct - 02:44:19 10° WNW 02:48:23 29° SW 02:52:23 10° SSE night (unlit)
20 Oct - 16:50:36 10° SSE 16:52:51 14° SE 16:55:07 10° E daylight
20 Oct - 18:29:18 10° SW 18:33:53 88° NW 18:38:34 10° NE visible
20 Oct - 20:12:15 10° WNW 20:15:59 23° NNW 20:19:45 10° NNE visible
20 Oct - 21:56:13 10° NW 21:58:55 15° N 22:01:37 10° NE visible
20 Oct - 23:38:01 10° NNW 23:41:50 24° NNE 23:45:39 10° ENE night (unlit)
21 Oct - 01:19:12 10° NW 01:23:55 90° S 01:28:36 10° SE night (unlit)
21 Oct - 03:02:40 10° W 03:04:59 14° SW 03:07:17 10° SSW night (unlit)
21 Oct - 17:05:31 10° SSW 17:09:27 29° SE 17:13:27 10° ENE daylight
21 Oct - 18:46:27 10° WSW 18:50:53 47° NNW 18:55:24 10° NE visible
21 Oct - 20:30:13 10° NW 20:33:22 18° NNW 20:36:32 10° NNE visible
21 Oct - 22:13:29 10° NNW 22:16:25 16° N 22:19:21 10° NE night (unlit)
21 Oct - 23:54:43 10° NW 23:59:05 36° NNE 00:03:25 10° E night (unlit)
22 Oct - 01:36:17 10° WNW 01:40:45 44° SW 01:45:11 10° SSE night (unlit)
22 Oct - 17:21:42 10° SW 17:26:11 62° SE 17:30:45 10° ENE daylight
22 Oct - 19:04:02 10° W 19:08:03 29° NNW 19:12:06 10° NE visible
22 Oct - 20:48:06 10° NW 20:50:50 15° N 20:53:36 10° NNE visible
22 Oct - 22:30:22 10° NNW 22:33:50 20° NNE 22:37:20 10° ENE night (unlit)
23 Oct - 00:11:28 10° NW 00:16:09 63° NE 00:20:48 10° ESE night (unlit)
23 Oct - 01:53:54 10° W 01:57:25 21° SW 02:00:55 10° S night (unlit)
23 Oct - 15:58:41 10° S 16:01:52 19° SE 16:05:07 10° E daylight
23 Oct - 17:38:33 10° WSW 17:43:04 66° NW 17:47:42 10° NE daylight
23 Oct - 19:21:54 10° WNW 19:25:21 20° NNW 19:28:49 10° NNE visible
23 Oct - 21:05:37 10° NNW 21:08:21 15° N 21:11:05 10° NE visible
23 Oct - 22:47:06 10° NW 22:51:09 28° NNE 22:55:14 10° E night (unlit)
24 Oct - 00:28:23 10° WNW 00:33:03 67° SW 00:37:42 10° SE night (unlit)
24 Oct - 16:14:18 10° SSW 16:18:32 40° SE 16:22:50 10° ENE daylight
24 Oct - 17:55:54 10° W 18:00:09 37° NNW 18:04:27 10° NE daylight
24 Oct - 19:39:52 10° NW 19:42:46 16° N 19:45:41 10° NNE visible
24 Oct - 21:22:41 10° NNW 21:25:49 17° NNE 21:28:58 10° NE visible
24 Oct - 23:03:48 10° NW 23:08:19 45° NNE 23:12:50 10° ESE night (unlit)
25 Oct - 00:45:39 10° WNW 00:49:49 32° SW 00:53:58 10° SSE night (unlit)
25 Oct - 14:52:36 10° SSE 14:54:20 12° SE 14:56:05 10° ESE daylight
25 Oct - 16:30:48 10° SW 16:35:20 85° SE 16:39:57 10° NE daylight
25 Oct - 18:13:38 10° WNW 18:17:22 24° NNW 18:21:09 10° NNE visible
25 Oct - 19:57:37 10° NW 20:00:16 15° N 20:02:55 10° NE visible
25 Oct - 21:39:28 10° NNW 21:43:12 23° NNE 21:46:56 10° ENE visible
25 Oct - 23:20:36 10° NW 23:25:19 84° NE 23:30:02 10° SE night (unlit)
26 Oct - 01:03:46 10° W 01:06:26 15° SW 01:09:06 10° SSW night (unlit)
26 Oct - 15:07:09 10° S 15:10:55 26° SE 15:14:44 10° ENE daylight
26 Oct - 16:47:53 10° WSW 16:52:17 50° NNW 16:56:47 10° NE daylight
26 Oct - 18:31:34 10° WNW 18:34:43 18° NNW 18:37:54 10° NNE visible
26 Oct - 20:14:55 10° NNW 20:17:46 16° N 20:20:37 10° NE visible
26 Oct - 21:56:10 10° NW 22:00:26 34° NNE 22:04:44 10° E night (unlit)
26 Oct - 23:37:38 10° WNW 23:42:10 48° SW 23:46:40 10° SSE night (unlit)
27 Oct - 15:23:14 10° SW 15:27:38 57° SE 15:32:07 10° ENE daylight
27 Oct - 17:05:25 10° W 17:09:26 30° NNW 17:13:30 10° NE daylight
27 Oct - 18:49:29 10° NW 18:52:11 15° N 18:54:55 10° NNE visible
27 Oct - 20:31:49 10° NNW 20:35:12 19° NNE 20:38:35 10° ENE visible
27 Oct - 22:12:54 10° NW 22:17:32 59° NE 22:22:10 10° ESE night (unlit)
